AKDT,Max TemperatureF,Mean TemperatureF,Min TemperatureF,Max Dew PointF,MeanDew PointF,Min DewpointF,Max Humidity, Mean Humidity, Min Humidity, Max Sea Level PressureIn, Mean Sea Level PressureIn, Min Sea Level PressureIn, Max VisibilityMiles, Mean VisibilityMiles, Min VisibilityMiles, Max Wind SpeedMPH, Mean Wind SpeedMPH, Max Gust SpeedMPH,PrecipitationIn, CloudCover, Events, WindDirDegrees
2012-9-1,55,50,46,46,43,40,93,79,63,29.64,29.57,29.51,10,10,10,12,2,,0.00,7,Rain,298
2012-9-2,62,52,43,45,38,28,93,62,23,29.74,29.68,29.61,10,10,10,31,9,47,0.00,6,,160
2012-9-3,62,56,50,39,35,31,55,43,27,29.60,29.53,29.49,10,10,10,36,28,60,0.00,7,,175
2012-9-4,60,52,43,42,35,29,82,50,25,29.85,29.70,29.52,10,10,5,47,16,72,0.00,5,,183
2012-9-5,60,55,50,35,33,30,57,43,24,29.67,29.56,29.49,10,10,10,39,28,53,0.00,4,,191
2012-9-6,53,48,42,38,36,31,82,65,42,30.13,29.95,29.70,10,10,10,16,10,22,0.00,6,,292
2012-9-7,51,44,37,37,34,31,89,75,47,30.14,30.03,29.90,10,10,10,12,3,16,0.00,5,,167
2012-9-8,50,43,36,34,32,27,89,68,31,29.95,29.91,29.86,10,10,10,13,6,,0.00,6,,284
2012-9-9,48,42,36,35,33,32,86,73,44,29.96,29.89,29.85,10,10,10,16,10,25,0.01,7,Rain,292
2012-9-10,46,40,34,33,29,21,92,68,34,30.02,29.99,29.96,10,10,10,8,5,,0.00,7,,276
2012-9-11,51,38,25,27,23,20,88,57,20,29.99,29.93,29.83,10,10,10,20,8,24,0.00,1,,113
2012-9-12,52,42,32,28,24,22,69,49,21,29.82,29.75,29.70,10,10,10,18,9,23,0.00,4,,118
2012-9-13,46,40,34,33,31,26,77,63,44,29.90,29.86,29.81,10,10,10,9,4,,0.00,7,,211
2012-9-14,48,40,32,36,32,25,85,73,49,29.86,29.84,29.77,10,10,10,12,3,,0.00,7,,99
2012-9-15,55,45,35,34,33,31,83,56,31,29.86,29.81,29.71,10,10,9,33,13,50,0.00,5,,152
2012-9-16,66,57,48,41,34,26,57,43,23,29.70,29.47,29.32,10,10,9,39,31,71,0.00,5,Rain,177
2012-9-17,57,52,48,30,28,25,50,40,23,29.85,29.66,29.39,10,10,10,38,28,66,0.00,4,,198
2012-9-18,52,49,46,30,28,25,48,42,28,29.83,29.74,29.68,10,10,10,41,30,58,0.00,5,,187
2012-9-19,66,57,48,43,34,27,56,42,23,29.83,29.64,29.49,10,10,10,33,24,51,0.00,5,,183
2012-9-20,64,55,46,53,44,39,93,66,33,29.77,29.69,29.60,10,10,7,25,14,34,0.08,6,Rain,147
2012-9-21,64,55,46,46,40,31,93,53,25,29.87,29.77,29.59,10,10,10,26,12,43,0.00,4,Rain,115
2012-9-22,64,58,53,42,40,35,66,49,25,29.70,29.52,29.40,10,10,10,23,16,36,0.00,5,,132
2012-9-23,63,54,42,39,32,28,82,38,17,29.80,29.54,29.40,10,10,10,32,25,44,0.00,6,Rain,195
2012-9-24,54,45,36,36,32,29,87,74,46,30.01,29.95,29.79,10,10,10,17,8,28,0.00,6,Rain,293
2012-9-25,55,46,37,32,30,27,73,44,24,29.88,29.64,29.38,10,10,10,23,15,36,0.00,6,,124
2012-9-26,57,50,43,30,25,22,48,36,16,29.41,29.32,29.07,10,10,10,29,20,41,0.00,3,,160
2012-9-27,53,48,42,30,26,22,62,41,23,29.11,28.99,28.88,10,10,10,24,10,33,0.00,6,,162
2012-9-28,54,44,33,32,29,26,85,66,23,29.52,29.30,29.12,10,10,8,15,4,20,0.00,5,,271
2012-9-29,48,38,27,29,27,25,96,80,43,29.96,29.70,29.53,10,10,10,14,7,34,0.00,6,,288
2012-9-30,36,32,28,29,27,25,96,85,63,30.13,30.06,29.93,10,9,2,7,4,,0.02,8,Snow,269